{"data":{"norad_id":57149,"epoch":"2026-09-20T21:40:39.618912Z","epoch_age_seconds":86017,"freshness":"FRESH","line1":"1 57149U 23090BA  26263.90323633 -.00000097  00000+0  60149-5 0  9999","line2":"2 57149  43.0029 226.3331 0001669 258.8468 101.2196 15.27575178180567","mean_motion":15.27575178,"eccentricity":0.0001669,"inclination_deg":43.0029,"raan_deg":226.3331,"arg_perigee_deg":258.8468,"mean_anomaly_deg":101.2196,"bstar":6.0149e-6,"rev_number":18056,"period_min":94.267046279538,"perigee_km":481.91840051107,"apogee_km":484.20866924961,"semimajor_km":6861.2005348803,"source":"CELESTRAK","updated_at":"2026-09-21T09:00:33.581916Z"}}